Location: ??? ?????
(30.6482°N, 60.5850°E)
Time: 22:11:35
(UTC+00:00)

Cosmos 921 Rocket - Pass Details

Date: 09 April 2020
Orbit: 572 x 632 km, 75.8° (Epoch: 23 May)

Event Time Altitude Azimuth Distance (km) Brightness Sun altitude
Rises 15:50:31 0° 356° (N) 2,782 6.8 -19.1°
Reaches altitude 10° 15:52:51 10° 6° (N) 1,884 5.7 -19.6°
Enters shadow 15:56:04 33° 52° (NE) 975 3.8 -20.2°
